Location: Cuve
(47.9026°N, 6.2215°E)
Time: 02:58:54
(UTC+00:00)

Daily predictions for brighter satellites

Satellite Brightness Start Highest point End
(mag) Time Altitude Azimuth Time Altitude Azimuth Time Altitude Azimuth
ATLAS 3B R/B 4.3 00:22:21 28° N 00:22:21 28° N 00:27:14 10° NE
SL-16 R/B 4.1 00:42:54 30° N 00:42:54 30° N 00:46:02 10° N
Cosmos 2322 Rocket 4.4 01:01:36 20° N 01:01:36 20° N 01:03:37 10° NNE
USA 234 4.2 01:02:21 10° NE 01:06:23 41° ENE 01:06:23 41° ENE
Cosmos 2237 Rocket 4.2 01:11:11 23° ENE 01:11:11 23° ENE 01:13:54 10° NE
CZ-2D R/B 4.1 01:06:45 10° NNE 01:08:51 24° NNE 01:08:51 24° NNE
Cosmos 2360 Rocket 4.1 01:29:47 22° N 01:29:47 22° N 01:32:20 10° NNE
Cosmos 2219 Rocket 3.7 01:43:52 30° N 01:43:52 30° N 01:46:52 10° NNE
Cosmos 2333 Rocket 3.7 01:45:25 29° N 01:45:25 29° N 01:48:30 10° NNE
Cosmos 1943 Rocket 3.9 01:40:15 10° NNW 01:45:15 30° NE 01:50:13 10° ESE
ADEOS Rocket 4.5 01:51:08 35° NW 01:51:08 35° NW 01:55:40 10° NNW
Resurs 1-4 Rocket 3.8 01:48:21 10° N 01:50:47 27° N 01:50:47 27° N
BREEZE-M DEB (TANK) 4.0 01:34:52 10° WNW 01:53:53 88° NNW 01:58:36 10° ESE
CZ-4C R/B 3.4 01:59:38 34° E 01:59:38 34° E 02:03:45 10° NE
ADEOS II 3.2 01:57:17 10° NNE 02:00:32 39° NNE 02:00:32 39° NNE
Cosmos 2369 Rocket 4.3 02:05:22 10° N 02:09:57 25° NE 02:14:28 10° E
NOSS 0 Rocket 4.1 02:21:12 61° NNW 02:21:12 61° NNW 02:26:39 10° NNE
Cosmos 2285 Rocket 3.9 02:21:17 83° NE 02:21:17 83° NE 02:27:23 10° NNE
SL-16 R/B 3.1 02:20:58 39° SE 02:21:36 40° ESE 02:26:52 10° NE
SL-16 R/B 4.4 02:28:00 16° NW 02:28:00 16° NW 02:29:21 10° NNW
Cosmos 2297 4.2 02:21:16 10° NNW 02:26:59 60° ENE 02:32:39 10° SE
Cosmos 1302 Rocket 4.2 02:31:30 67° ENE 02:31:30 67° ENE 02:36:19 10° NNE
CBERS-1 4.3 02:28:06 10° NNE 02:32:27 64° NNE 02:32:27 64° NNE
IDEFIX/ARIANE 42P 2.9 02:30:30 10° NNE 02:34:52 60° N 02:34:52 60° N
USA 229 DEB 4.5 02:36:49 34° NW 02:37:46 36° NNW 02:44:10 10° NE
USA 229 4.5 02:36:54 35° NW 02:37:51 36° NNW 02:44:16 10° NE
Meteor 1-5 Rocket 4.2 02:33:33 10° N 02:38:05 65° N 02:38:05 65° N
ARIANE 5 R/B 3.3 02:35:17 10° NNE 02:40:10 47° E 02:41:22 39° SE
ATLAS 5 CENTAUR R/B 4.0 02:39:46 14° NNW 02:40:38 14° N 02:43:16 10° NNE
SL-24 R/B - RUBIN 2 4.1 02:43:19 81° S 02:43:36 85° SE 02:49:10 10° NE
ALOS 4.4 02:40:41 10° NE 02:44:28 24° E 02:48:14 10° SSE
Cosmos 1980 4.1 02:45:10 50° NW 02:45:10 50° NW 02:50:11 10° NNE
Cosmos 968 Rocket 4.4 02:39:50 10° NNW 02:43:01 38° NNW 02:43:01 38° NNW
COSMOS 2428 4.1 02:47:23 25° NW 02:47:23 25° NW 02:51:36 10° N
CZ-2D R/B 3.9 02:47:41 10° N 02:50:09 19° NW 02:50:09 19° NW
USA 234 3.7 02:45:29 10° NE 02:51:44 50° NNW 02:53:43 38° WNW
Cosmos 2237 Rocket 2.6 02:53:02 48° NW 02:53:02 48° NW 02:58:20 10° NNE
Nadezhda 2 Rocket 4.5 02:49:43 10° N 02:55:52 80° E 03:02:00 10° SSE
CENTAUR R/B 3.4 02:52:24 10° NW 03:00:24 71° NE 03:09:20 10° SE
CZ-4B R/B 4.3 02:55:41 10° NNE 03:00:45 51° E 03:04:02 22° SSE
IRS-P3 4.0 02:59:32 10° NNE 03:04:56 90° W 03:06:15 53° SSW
COSMOS 2441 4.4 03:01:57 10° N 03:06:40 63° WNW 03:06:40 63° WNW
Cosmos 1553 Rocket 4.3 03:06:30 10° S 03:12:37 66° E 03:18:54 10° NNE
Cosmos 1515 Rocket 3.3 03:14:02 80° W 03:14:07 81° W 03:18:29 10° N
Cosmos 44 Rocket 4.2 03:17:37 26° S 03:20:17 48° ESE 03:25:18 10° NE
RUBIN 8/PSLV 4.4 03:16:35 10° N 03:20:55 76° WNW 03:21:23 66° SW
PAYLOAD A 3.9 03:18:43 10° NNE 03:23:27 78° ESE 03:26:12 26° S
Meteor 1-11 Rocket 3.7 03:18:48 10° NNW 03:24:45 83° W 03:30:33 10° S
MSX 4.2 03:21:07 10° N 03:26:34 44° WNW 03:27:43 39° W
Cosmos 1503 Rocket 4.0 03:21:29 10° NNW 03:26:43 85° ENE 03:31:57 10° SSE
Cosmos 2219 Rocket 4.2 03:25:35 13° NW 03:26:44 13° NNW 03:29:27 10° N
Spot 4 Rocket 4.2 03:21:39 10° NNE 03:26:48 71° ESE 03:31:06 15° S
Cosmos 2333 Rocket 4.3 03:27:25 11° NW 03:28:58 12° NNW 03:31:14 10° N
USA 238 DEB 3.9 03:21:52 10° NW 03:29:09 85° NE 03:36:48 10° SE
USA 238 3.9 03:21:58 10° NW 03:29:15 85° NE 03:36:55 10° SE
Cosmos 1943 Rocket 2.2 03:23:46 10° NW 03:29:19 55° WSW 03:34:49 10° S
Cosmos 1743 3.4 03:25:45 10° N 03:29:35 55° ENE 03:33:22 10° SSE
GEOS 3 Rocket 4.3 03:27:14 10° NNE 03:32:03 40° NW 03:33:29 33° WNW
Resurs 1-4 Rocket 4.3 03:31:22 10° NW 03:31:50 10° NW 03:31:50 10° NW
Meteor 1-10 Rocket 4.2 03:29:49 31° SSW 03:32:33 67° WNW 03:38:20 10° N
MOS 1 Rocket 3.0 03:30:40 19° S 03:33:43 63° W 03:38:00 10° NNW
SJ 16-02 3.4 03:32:00 10° N 03:35:54 29° ENE 03:39:47 10° ESE
Cosmos 2228 Rocket 3.4 03:32:09 11° S 03:36:34 69° E 03:41:09 10° NNE
NOSS 3-2 (A) 4.0 03:29:08 10° NW 03:36:37 70° SW 03:45:07 10° SSE
Lacrosse 5 4.3 03:34:08 10° SSE 03:37:22 17° ESE 03:40:36 10° E
CZ-2D R/B 3.4 03:33:49 10° N 03:38:07 65° WNW 03:39:26 41° SW
Tiangong 3.8 03:38:23 10° SSE 03:38:48 11° SSE 03:39:33 10° SE
Meteor 2-17 Rocket 4.4 03:33:47 10° N 03:39:59 87° E 03:46:07 10° S
ADEOS II 3.8 03:38:25 10° NNW 03:41:28 16° NW 03:41:28 16° NW
Cosmos 1943 4.2 03:37:10 10° S 03:42:34 45° ESE 03:47:58 10° NE
Cosmos 1354 Rocket 3.9 03:40:15 10° NNW 03:45:31 81° WSW 03:50:46 10° SSE
SL-08 R/B 3.6 03:44:47 35° SW 03:45:40 39° W 03:50:01 10° NNW
PSLV R/B 4.3 03:42:08 10° NNE 03:46:23 54° E 03:50:38 10° S
CZ-2C R/B 2.9 03:42:28 10° NNE 03:46:26 76° ESE 03:49:46 13° S
CZ-4C R/B 2.7 03:44:49 31° W 03:46:52 45° NW 03:52:49 10° NE
Cosmos 1486 Rocket 4.4 03:43:00 10° NW 03:47:58 40° WSW 03:52:53 10° S
Cosmos 1417 Rocket 4.4 03:43:30 10° S 03:49:39 83° W 03:55:50 10° N
Cosmos 1536 2.8 03:47:06 10° NNW 03:50:59 53° W 03:54:50 10° S
SL-08 ROCKET BODY 4.5 03:45:44 10° NNW 03:51:19 48° W 03:56:54 10° SSW
CZ-2C R/B 2.5 03:46:33 10° N 03:51:42 64° WNW 03:55:35 17° SSW
Cosmos 1544 4.0 03:49:17 10° NNW 03:51:48 31° WNW 03:51:48 31° WNW
Cosmos 2369 Rocket 2.1 03:48:56 10° NNW 03:54:31 71° WSW 04:00:04 10° SSE
METEOR-M 4.3 03:50:00 10° NNE 03:55:23 74° ESE 04:00:43 10° S
Cosmos 1818 3.7 03:52:54 28° WSW 03:55:42 59° NW 04:01:09 10° NNE
SL-8 R/B 3.7 03:53:45 31° W 03:56:06 88° NNW 04:00:57 10° E
Cosmos 1933 Rocket 4.3 03:52:58 10° NNW 03:56:52 31° W 03:57:25 30° WSW
Cosmos 1603 4.3 03:51:44 10° S 03:57:13 58° ESE 04:02:47 10° NE
Cosmos 1869 Rocket 3.5 03:53:03 10° NNW 03:57:27 66° W 04:01:52 10° S
X-37B 1.0 03:57:54 41° SW 03:58:34 50° S 04:01:39 10° ESE
Meteor 1-27 Rocket 3.8 03:53:14 10° SSW 03:59:05 66° WNW 04:05:03 10° N
Cosmos 1484 Rocket 2.8 03:58:28 10° NNE 04:02:11 76° ESE 04:05:53 10° S
Cosmos 1656 Rocket 3.5 03:56:49 10° NNW 04:02:17 87° WSW 04:07:42 10° SSE
Cosmos 1733 Rocket 4.0 03:59:08 10° N 04:03:25 50° ENE 04:07:43 10° SSE
SL-16 R/B 2.8 04:02:53 23° WSW 04:05:45 38° NW 04:11:04 10° NNE
ATLAS 3B R/B 4.2 04:00:50 10° NW 04:07:10 35° NNE 04:13:45 10° E
Cosmos 2315 Rocket 4.4 04:06:08 10° S 04:12:27 69° E 04:18:47 10° NNE
IDEFIX/ARIANE 42P 4.4 04:11:55 10° NNW 04:14:30 14° NW 04:15:40 13° WNW
Geosat 4.1 04:09:35 10° SE 04:14:37 81° ENE 04:19:41 10° NNW
ARIANE 5 R/B 3.5 04:14:51 10° N 04:19:02 27° WNW 04:21:42 17° WSW
S3M 4.0 04:12:56 10° SSW 04:19:12 63° WNW 04:25:25 10° N
CZ-2C R/B 3.6 04:18:19 10° SSW 04:20:25 13° S 04:22:33 10° SE
ATLAS CENTAUR R/B 3.7 04:21:37 10° SSE 04:21:56 10° SE 04:22:15 10° SE
ALOS 2.6 04:17:37 10° N 04:22:03 44° WNW 04:26:28 10° SW
Meteor 1-19 Rocket 4.3 04:17:06 10° S 04:22:29 81° E 04:28:00 10° NNE
USA-17 4.4 04:20:37 12° SW 04:24:15 86° SE 04:27:26 10° NE
ATLAS 5 CENTAUR R/B 4.2 04:24:09 10° NNW 04:27:17 16° NNE 04:30:44 10° NE
Cosmos 1709 Rocket 3.9 04:24:39 10° NNW 04:30:45 71° W 04:36:51 10° S
USA 290 3.1 04:30:50 15° WSW 04:33:04 32° WNW 04:36:05 10° N
Cosmos 2263 4.4 04:28:25 10° NW 04:33:52 48° WSW 04:39:19 10° S
USA 234 4.2 04:28:02 10° ENE 04:34:01 40° N 04:40:02 10° WNW
CZ-2C R/B 3.4 04:29:23 10° SSE 04:34:30 56° ENE 04:39:46 10° N
NOSS 3-4 (A) 3.6 04:31:16 10° SSW 04:37:03 75° SE 04:43:20 10° NE
NOSS 3-4 (C) 3.6 04:31:24 10° SSW 04:37:11 75° SE 04:43:27 10° NE
Cosmos 2237 Rocket 4.2 04:35:41 10° WNW 04:38:21 13° NNW 04:41:02 10° N
CZ-4C R/B 3.3 04:38:53 10° SSE 04:42:14 69° ENE 04:45:42 10° N
Okean 1 3.6 04:39:15 10° SSW 04:43:04 46° WNW 04:46:55 10° N
ATLAS 2AS CENTAUR R/B 4.0 04:35:53 10° S 04:43:20 49° ESE 04:50:39 10° NE
Meteor 2-9 Rocket 4.2 04:39:02 10° NNW 04:44:34 58° W 04:49:54 10° S
Cosmos 1356 Rocket 4.2 04:43:58 10° NNW 04:47:39 30° W 04:51:17 10° SSW
COSMO-SKYMED 1 2.6 04:43:35 10° SSE 04:47:56 86° WSW 04:52:18 10° NNW
NOSS 3-2 (C) 4.4 04:41:44 10° NW 04:48:56 46° WSW 04:57:00 10° S
Cosmos 1378 4.4 04:45:41 10° SSE 04:49:15 46° E 04:52:52 10° NNE
Intercosmos 24 4.3 04:44:03 10° S 04:49:33 90° WSW 04:53:33 10° N
CENTAUR R/B 3.7 04:43:29 10° NW 04:50:59 39° WSW 04:59:02 10° S
ADEOS 4.4 04:45:57 10° NNE 04:51:06 56° ESE 04:56:13 10° S
NOSS 7 (E) 4.4 04:49:45 10° SW 04:53:38 74° NW 04:56:47 10° NE
Meteor 1-31 Rocket 2.9 04:50:31 10° NNE 04:54:26 82° ESE 04:58:17 10° SSW
Cosmos 2184 Rocket 4.4 04:50:55 10° N 04:57:07 72° E 05:03:14 10° SSE
Cosmos 44 Rocket 4.2 04:57:12 10° WSW 05:02:00 36° NW 05:06:48 10° NNE
